Home > Weather > Vreden > Past weeks

Flag for Germany Past Weather in Vreden, North Rhine-Westphalia, Germany — Yesterday and Last 2 Weeks

Now
58 °F

Partly sunny.


Feels Like: 57 °F
Forecast: 54 / 62 °F
Wind: 5 mph from Southwest

Location: Twenthe

Current Time: Jun 26, 2016 at 10:22:56 AM

Latest Report: Jun 26, 2016 at 9:00 AM


Visibility: 8 mi

Pressure: 30.01 "Hg

Humidity: 88%

Dew Point: 54 °F

Location of VredenLocation

Past Weather in Vreden — Graph

°F

Vreden Temperature Yesterday

Maximum temperature yesterday: 66 °F (at 12:00 AM)
Minimum temperature yesterday: 57 °F (at 11:00 PM)
Average temperature yesterday: 61 °F

High & Low Weather Summary for the Past Weeks

 TemperatureHumidityPressure
High87 °F (Jun 23, 6:00 PM)100% (Jun 13, 1:00 AM)30.25 "Hg (Jun 13, 1:00 AM)
Low47 °F (Jun 20, 1:00 AM)45% (Jun 16, 6:00 PM)29.44 "Hg (Jun 14, 4:00 PM)
Average62 °F86%29.87 "Hg
* Reported Jun 11 8:00 AM — Jun 26 8:00 AM, Vreden, Weather by CustomWeather, © 2016

Note: Actual official high and low records may vary slightly from our data, if they occured in-between our weather recording intervals... More about our weather records

Advertising

Vreden Weather History for the Previous 24 Hours

Scroll right to see more
 ConditionsComfort  
Time TempWeatherWind HumidityBarometerVisibility
8:00 AM
Sun, Jun 26
56 °FPassing clouds.5 mph94%30.00 "Hg6 mi
7:00 AM54 °FFog.3 mph97%30.00 "Hg4 mi
6:00 AM52 °FFog.3 mph100%30.00 "Hg2 mi
5:00 AM53 °FFog.3 mph98%29.99 "Hg3 mi
4:00 AM53 °FFog.3 mph98%29.99 "Hg3 mi
3:00 AM55 °FPassing clouds.3 mph100%29.99 "Hg2 mi
2:00 AM56 °FPassing clouds.2 mph100%29.99 "Hg1 mi
1:00 AM57 °FOvercast.3 mph100%29.99 "Hg1 mi
12:00 AM55 °FClear.1 mph99%30.00 "Hg2 mi
11:00 PM
Sat, Jun 25
57 °FPassing clouds.2 mph99%29.99 "Hg2 mi
10:00 PM59 °FOvercast.2 mph98%29.98 "Hg4 mi
9:00 PM58 °FOvercast.2 mph93%29.98 "Hg14 mi
8:00 PM58 °FDrizzle. Overcast.2 mph94%29.96 "Hg9 mi
7:00 PM60 °FLight rain. Low clouds.3 mph98%29.95 "Hg3 mi
5:00 PM61 °FDrizzle. Low clouds.1 mph94%29.97 "Hg6 mi
4:00 PM61 °FLight rain. Overcast.2 mph95%29.97 "Hg6 mi
3:00 PM60 °FDrizzle. Overcast.2 mph91%29.98 "Hg16 mi
2:00 PM61 °FLight rain. Low clouds.2 mph95%29.97 "Hg8 mi
1:00 PM60 °FRain. Overcast.5 mph93%29.97 "Hg6 mi
12:00 PM59 °FRain. Low clouds.3 mph97%29.97 "Hg3 mi
11:00 AM60 °FLight rain. Low clouds.3 mph99%29.97 "Hg3 mi
10:00 AM60 °FRain. Low clouds.3 mph98%29.98 "Hg2 mi
Weather by CustomWeather, © 2016

See weather overviewHow to use our weather pages